Location: Little Chesterford
(52.0500°N, 0.1833°E)
Time: 04:10:43
(UTC+00:00)

Cosmos 1727 Rocket - Pass Details

Date: 26 September 2023
Orbit: 961 x 996 km, 82.9° (Epoch: 29 November)

Event Time Altitude Azimuth Distance (km) Brightness Sun altitude
Exits shadow 21:46:29 64° 338° (NNW) 1,073 4.3 -33.1°
Drops below altitude 10° 21:51:52 10° 8° (N) 2,737 6.8 -33.6°
Sets 21:54:24 0° 10° (N) 3,694 7.6 -33.8°
